#timestamp,LO_Frequency,Hit,StdDev 
1459324815.1,286047011.9,N
1459324835.9,286047013.4,N
1459324855.7,286047015.5,Y
1459324875.5,286047002.0,P
1459324895.4,286047003.2,N
1459324915.2,286047005.1,N
1459324935.0,286047003.0,N
1459324935.9,286047003.0,N
1459324955.8,286047003.5,N
1459324975.6,286047006.5,N
1459324995.4,286047004.9,N
1459325015.3,286047007.3,N
1459325035.1,286047005.4,N
1459325036.0,286047005.4,N
1459325055.8,286047006.7,N
1459325075.7,286047007.4,Y
1459325095.5,286047001.3,P
1459325115.3,286047000.2,N
1459325135.1,286047002.2,N
1459325155.9,286047001.4,N
1459325175.7,286047003.2,N
1459325195.6,286047004.9,Y
1459325215.4,286047000.1,P
1459325235.2,286047000.4,N
1459325255.0,286046999.0,N
1459325255.9,286046999.0,N
1459325275.8,286047004.3,Y
1459325295.6,286047002.3,P
1459325315.4,286047000.9,N
1459325335.3,286047001.2,N
1459325355.1,286047000.0,N
1459325375.8,286047002.0,N
1459325395.7,286047004.9,Y
1459325415.5,286047002.2,P
1459325435.3,286046996.9,P
1459325455.2,286046995.9,N
1459325475.0,286046994.9,N
1459325475.9,286046994.9,N
1459325495.7,286046995.7,N
1459325515.6,286046995.8,N
1459325535.4,286046997.8,N
1459325555.2,286046998.0,N
1459325575.1,286046994.1,N
1459325576.0,286046994.1,N
1459325595.8,286046995.7,N
1459325615.6,286046997.1,N
1459325635.5,286046993.9,N
1459325655.3,286046993.5,N
1459325675.1,286046991.8,Y
1459325695.9,286046994.9,P
1459325715.7,286046996.2,P
1459325735.5,286046991.7,P
1459325755.4,286046994.7,N
1459325775.2,286046992.6,Y
1459325795.0,286046996.7,P
1459325795.9,286046996.7,P
1459325815.8,286046999.1,N
1459325835.6,286046998.8,N
1459325855.4,286047000.3,N
1459325875.3,286046999.9,N
1459325895.1,286047000.7,N
1459325896.0,286047000.7,N
1459325915.8,286046998.3,N
1459325935.7,286047004.2,N
1459325955.5,286047002.4,N
1459325975.3,286046998.4,N
1459325995.1,286046997.0,N
1459326015.9,286046996.5,N
1459326035.7,286046997.6,N
1459326055.5,286046998.8,N
1459326075.4,286047001.9,N
1459326095.2,286047002.0,N
1459326115.0,286047004.2,N
1459326115.9,286047004.2,N
1459326135.8,286047001.0,N
1459326155.6,286047000.0,N
1459326175.4,286046998.9,N
1459326195.3,286046998.3,N
1459326215.1,286047000.6,N
1459326216.0,286047000.6,N
1459326235.8,286047001.4,N
1459326255.7,286047001.8,N
1459326275.5,286047001.3,N
1459326295.3,286047004.0,N
1459326315.2,286047005.4,N
1459326335.9,286047006.5,N
1459326355.7,286047005.7,N
1459326375.5,286047004.7,N
1459326395.4,286047008.7,Y
1459326415.2,286047003.7,P
1459326435.1,286047007.1,P
1459326436.0,286047007.1,N
1459326455.8,286047005.7,N
1459326475.6,286047001.9,N
1459326495.4,286047003.9,N
1459326515.3,286047002.9,N
1459326535.1,286047005.9,N
1459326555.8,286047006.5,Y
1459326575.7,286047002.1,P
1459326595.5,286046999.7,N
1459326615.3,286046997.8,N
1459326635.2,286046997.3,N
1459326655.0,286046995.5,N
1459326655.9,286046995.5,N
1459326675.7,286046996.2,N
1459326695.6,286046994.7,N
1459326715.4,286046993.0,N
1459326735.2,286046992.4,N
1459326755.1,286046993.8,N
1459326756.0,286046993.8,N
1459326775.8,286046995.9,N
1459326795.6,286046994.0,N
1459326815.5,286046993.5,N
1459326835.3,286046992.1,N
1459326855.1,286046990.4,N
1459326875.9,286046994.3,N
1459326895.7,286046990.9,N
1459326915.5,286046990.5,N
1459326935.3,286046992.6,N
1459326955.2,286046993.6,N
1459326975.0,286046991.8,N
1459326975.9,286046991.8,N
1459326995.7,286046999.2,N
1459327015.6,286046995.4,N
1459327035.4,286046994.5,N
1459327055.2,286046990.2,N
1459327075.1,286046989.1,Y
1459327076.0,286046989.1,P
1459327095.8,286046993.7,N
1459327115.6,286046995.3,N
1459327135.5,286046996.2,N
1459327155.3,286046994.0,N
1459327175.1,286046997.5,N
1459327195.9,286046996.6,N
1459327215.7,286046999.2,N
1459327235.5,286046999.5,N
1459327255.4,286047000.9,N
1459327275.2,286046998.2,N
1459327295.0,286046998.9,N
1459327295.9,286046998.9,N
1459327315.8,286047000.8,N
1459327335.6,286047000.7,N
1459327355.4,286047002.4,N
1459327375.2,286047002.3,N
1459327395.1,286047002.3,N
1459327396.0,286047002.3,N
1459327415.8,286047004.0,N
1459327435.6,286047005.9,N
1459327455.5,286047005.2,N
1459327475.3,286047003.0,N
1459327495.1,286047001.3,N
1459327515.9,286047004.3,N
1459327535.7,286047001.5,N
1459327555.5,286047001.3,N
1459327575.4,286047003.3,N
1459327595.2,286047009.1,N
1459327615.0,286047005.3,N
1459327615.9,286047005.3,N
1459327635.8,286047004.8,N
1459327655.6,286047006.9,N
1459327675.4,286047004.5,N
1459327695.2,286047007.6,N
1459327715.1,286047001.6,N
1459327716.0,286047001.6,N
1459327735.8,286047002.2,N
1459327755.6,286046998.6,N
1459327775.5,286046999.1,N
1459327795.3,286046996.6,N
1459327815.1,286046997.4,N
1459327835.9,286046996.9,N
1459327855.7,286046997.7,N
1459327875.5,286046996.5,N
1459327895.4,286046997.3,N
1459327915.2,286046999.4,N
1459327935.0,286046998.8,N
1459327935.9,286046998.8,N
1459327955.8,286047001.2,N
1459327975.6,286046999.4,N
1459327995.4,286047000.6,N
1459328015.3,286047002.6,N
1459328035.1,286047000.5,N
1459328036.0,286047000.5,N
1459328055.8,286046999.4,N
1459328075.7,286046998.5,N
1459328095.5,286047000.8,N
1459328115.3,286047002.6,N
1459328135.1,286047000.1,N
1459328155.9,286046996.7,N
1459328175.7,286046996.4,N
1459328195.5,286046996.4,N
1459328215.4,286046997.0,N
1459328235.2,286047000.3,N
1459328255.0,286046999.2,N
1459328255.9,286046999.2,N
1459328275.8,286046998.4,N
1459328295.6,286047002.4,N
1459328315.4,286046999.6,N
1459328335.3,286046998.9,N
1459328355.1,286046998.2,N
1459328356.0,286046998.2,N
1459328375.8,286046999.8,N
1459328395.7,286047002.0,N
